Retour au catalogue

UMBRA-10

ActifScienceSSO
NORAD 60547·PAYLOAD·🇺🇸 United States

Lancé Aug 16, 2024 depuis Vandenberg Space Force Base

Loading…

Prochains Passages (prochaines 24 heures)

TLE

FraisSource: Space-Track

Époque: Sep 13, 2026, 18:48 UTC

1 60547U 24149CH  26256.78344951  .00012359  00000-0  56865-3 0  9997
2 60547  97.6953 345.6876 0001535  72.0114 288.1288 15.20478444114182

Suivez UMBRA-10 en temps réel avec AllMySat

Download on the App Store